Weather History for Grand Forks AFB, ND

Change the Weather History Date:

Monday, April 29, 2013

  Actual Average Record
Temperature  
Mean Temperature 44 °F -  
Max Temperature 63 °F 60 °F 80 °F (2001)
Min Temperature 27 °F 35 °F 27 °F (2013)
Degree Days  
Heating Degree Days 20    
Moisture  
Dew Point 37 °F    
Average Humidity 71    
Maximum Humidity 95    
Minimum Humidity 40    
Precipitation  
Precipitation 0.03 in - - ()
Sea Level Pressure  
Sea Level Pressure 29.68 in    
Wind  
Wind Speed 9 mph (SE)    
Max Wind Speed 20 mph    
Max Gust Speed -    
Visibility 10 miles    
Events Rain    
Averages and records for this station are not official NWS values.
T = Trace of Precipitation, MM = Missing Value Source: NWS Daily Summary

Daily Weather History Graph

Daily Weather History Graph

Search for Another Location

Airport:

Trip Planner

Search our weather history database for the weather conditions in past years. The results will help you decide how hot, cold, wet, or windy it might be!

Date:

Astronomy

Apr. 29, 2013 Rise Set
Actual Time 6:14 AM CDT 8:40 PM CDT
Civil Twilight 5:39 AM CDT 9:14 PM CDT
Nautical Twilight 4:56 AM CDT 9:58 PM CDT
Astronomical Twilight 4:07 AM CDT 10:48 PM CDT
Moon 12:18 AM CDT (4/29) 9:29 AM CDT (4/29)
Length of Visible Light 15h 34m
Length of Day
14h 25m
Waning Gibbous, 80% of the Moon is Illuminated
Apr 29
Waning Gibbous
May 2
Last Quarter
May 9
New
May 17
First Quarter
May 24
Full

Hourly Weather History & Observations

Time (CDT) Temp. Windchill Dew Point Humidity Pressure Visibility Wind Dir Wind Speed Gust Speed Precip Events Conditions
12:58 AM 36.5 °F 31.0 °F 28.8 °F 74% 29.90 in 10.0 mi West 6.9 mph - N/A   Clear
1:58 AM 33.8 °F 28.6 °F 27.3 °F 77% 29.91 in 10.0 mi NW 5.8 mph - N/A   Clear
2:58 AM 32.5 °F - 27.5 °F 82% 29.90 in 10.0 mi Calm Calm - N/A   Clear
3:58 AM 29.5 °F 24.5 °F 25.7 °F 86% 29.90 in 10.0 mi South 4.6 mph - N/A   Clear
4:58 AM 27.0 °F 20.5 °F 25.2 °F 93% 29.89 in 10.0 mi SSW 5.8 mph - N/A   Clear
5:58 AM 28.8 °F 25.0 °F 25.7 °F 88% 29.89 in 10.0 mi SSW 3.5 mph - N/A   Clear
6:58 AM 29.1 °F 23.0 °F 26.2 °F 89% 29.87 in 10.0 mi SSW 5.8 mph - N/A   Clear
7:58 AM 36.9 °F 32.2 °F 31.1 °F 80% 29.86 in 10.0 mi SW 5.8 mph - N/A   Clear
8:58 AM 42.6 °F 36.3 °F 30.9 °F 63% 29.81 in 10.0 mi South 11.5 mph - N/A   Clear
9:58 AM 46.9 °F - 30.7 °F 53% 29.80 in 10.0 mi SSE 15.0 mph - N/A   Clear
10:58 AM 50.0 °F - 32.7 °F 52% 29.78 in 10.0 mi SSE 16.1 mph - N/A   Clear
11:58 AM 52.5 °F - 33.8 °F 49% 29.74 in 10.0 mi South 18.4 mph - N/A   Clear
12:58 PM 55.9 °F - 35.2 °F 46% 29.69 in 10.0 mi SSE 18.4 mph - N/A   Clear
1:58 PM 60.3 °F - 36.1 °F 41% 29.66 in 10.0 mi SSE 18.4 mph - N/A   Clear
2:58 PM 62.1 °F - 37.2 °F 40% 29.62 in 10.0 mi SSE 19.6 mph - N/A   Clear
3:58 PM 62.2 °F - 37.4 °F 40% 29.59 in 10.0 mi SSE 17.3 mph - N/A   Partly Cloudy
4:58 PM 62.2 °F - 41.5 °F 47% 29.57 in 10.0 mi South 11.5 mph - N/A   Overcast
5:58 PM 61.7 °F - 41.2 °F 47% 29.57 in 10.0 mi SSE 4.6 mph - N/A   Overcast
6:58 PM 60.4 °F - 42.4 °F 51% 29.56 in 10.0 mi ENE 3.5 mph - N/A   Mostly Cloudy
7:58 PM 55.8 °F - 44.1 °F 65% 29.57 in 10.0 mi North 10.4 mph - N/A   Overcast
8:58 PM 52.2 °F - 44.4 °F 75% 29.56 in 10.0 mi NNE 10.4 mph - N/A   Overcast
9:20 PM 51.8 °F - 44.6 °F 76% 29.53 in 10.0 mi NNE 11.5 mph - N/A   Light Drizzle
9:29 PM 51.8 °F - 44.6 °F 76% 29.54 in 10.0 mi North 13.8 mph - N/A   Overcast
9:31 PM 50.0 °F - 44.6 °F 82% 29.54 in 10.0 mi NNW 13.8 mph - N/A Rain Light Rain
9:32 PM 50.0 °F - 44.6 °F 82% 29.55 in 10.0 mi NNW 13.8 mph - N/A   Light Drizzle
9:58 PM 48.6 °F - 46.0 °F 91% 29.57 in 10.0 mi North 15.0 mph - 0.01 in Rain Light Rain
10:25 PM 48.2 °F - 46.4 °F 93% 29.52 in 10.0 mi NNE 15.0 mph - N/A   Mostly Cloudy
10:58 PM 47.5 °F - 46.2 °F 95% 29.52 in 10.0 mi NE 10.4 mph - 0.00 in   Clear
11:16 PM 48.2 °F - 46.4 °F 93% 29.49 in 10.0 mi East 5.8 mph - N/A   Light Drizzle
11:58 PM 48.6 °F - 46.4 °F 92% 29.49 in 10.0 mi ENE 9.2 mph - 0.02 in Rain Light Rain